Location: Potomac
(46.8816°N, 113.5795°W)
Time: 06:18:51
(UTC+00:00)

CUTE 1.7 + AOD 2 - Pass Details

Date: 05 July 2022
Orbit: 589 x 608 km, 97.7° (Epoch: 09 August)

Event Time Altitude Azimuth Distance (km) Brightness Sun altitude
Rises 10:52:37 0° 21° (NNE) 2,848 ? -7.8°
Reaches altitude 10° 10:54:59 10° 31° (NNE) 1,938 ? -7.5°
Maximum altitude 10:58:47 32° 96° (E) 1,017 ? -7.1°
Drops below altitude 10° 11:02:32 10° 161° (SSE) 1,915 ? -6.6°
Sets 11:04:51 0° 171° (S) 2,809 ? -6.3°
